Torna al catalogo

STARLINK-31637

AttivoComunicazioniVLEO
NORAD 59258·PAYLOAD·🇺🇸 United States

Lanciato Mar 19, 2024 da Vandenberg Space Force Base

Loading…

Prossimi Passaggi (prossime 24 ore)

TLE

AggiornatoSource: CelesTrak SupGP

Epoca: Sep 15, 2026, 02:23 UTC

1 59258C 24050E   26258.09979167  .00027951  00000+0  82586-3 0  2584
2 59258  53.1595  18.6235 0001250 100.2207 292.0094 15.34375349    15

Traccia STARLINK-31637 in tempo reale con AllMySat

Download on the App Store